Time,TemperatureF,DewpointF,PressureIn,WindDirection,WindDirectionDegrees,WindSpeedMPH,WindSpeedGustMPH,Humidity,HourlyPrecipIn,Conditions,Clouds,dailyrainin,SoftwareType,DateUTC
2013-05-24 00:00:00,80.2,77.0,30.04,SE,134,1.0,6.0,89,0.00,,,0.00,weatherlink.com 1.10,2013-05-24 04:00:00,
2013-05-24 00:15:00,80.1,77.0,30.04,SE,125,5.0,6.0,89,0.00,,,0.00,weatherlink.com 1.10,2013-05-24 04:15:00,
2013-05-24 00:31:00,80.2,76.0,30.04,SE,126,6.0,9.0,88,0.00,,,0.00,weatherlink.com 1.10,2013-05-24 04:31:00,
2013-05-24 00:45:00,80.2,77.0,30.03,SE,136,4.0,11.0,89,0.00,,,0.00,weatherlink.com 1.10,2013-05-24 04:45:00,
2013-05-24 01:01:00,80.1,77.0,30.03,SSE,153,7.0,8.0,89,0.00,,,0.00,weatherlink.com 1.10,2013-05-24 05:01:00,
2013-05-24 01:15:00,80.1,77.0,30.04,SE,130,3.0,8.0,90,0.00,,,0.00,weatherlink.com 1.10,2013-05-24 05:15:00,
2013-05-24 01:31:00,79.9,77.0,30.03,SE,146,3.0,7.0,90,0.00,,,0.00,weatherlink.com 1.10,2013-05-24 05:31:00,
2013-05-24 01:46:00,79.8,77.0,30.03,SE,141,0.0,0.0,91,0.00,,,0.00,weatherlink.com 1.10,2013-05-24 05:46:00,
2013-05-24 02:00:00,79.8,77.0,30.02,SSW,208,0.0,2.0,91,0.00,,,0.00,weatherlink.com 1.10,2013-05-24 06:00:00,
2013-05-24 02:16:00,79.8,77.0,30.01,SW,227,0.0,0.0,91,0.00,,,0.00,weatherlink.com 1.10,2013-05-24 06:16:00,
2013-05-24 02:30:00,79.6,77.0,30.02,WNW,287,3.0,3.0,91,0.00,,,0.00,weatherlink.com 1.10,2013-05-24 06:30:00,
2013-05-24 02:46:00,78.8,76.0,30.01,West,271,1.0,4.0,92,0.00,,,0.00,weatherlink.com 1.10,2013-05-24 06:46:00,
2013-05-24 03:01:00,78.3,76.0,30.01,WNW,283,1.0,5.0,93,0.00,,,0.00,weatherlink.com 1.10,2013-05-24 07:01:00,
2013-05-24 03:17:00,77.7,76.0,30.01,NNW,341,0.0,0.0,93,0.00,,,0.00,weatherlink.com 1.10,2013-05-24 07:17:00,
2013-05-24 03:31:00,77.2,74.0,30.00,ENE,57,2.0,3.0,88,0.00,,,0.00,weatherlink.com 1.10,2013-05-24 07:31:00,
2013-05-24 03:47:00,76.6,69.0,30.01,ENE,68,4.0,7.0,76,0.00,,,0.00,weatherlink.com 1.10,2013-05-24 07:47:00,
2013-05-24 04:01:00,76.4,68.0,30.01,East,79,0.0,4.0,74,0.00,,,0.00,weatherlink.com 1.10,2013-05-24 08:01:00,
2013-05-24 04:16:00,75.8,68.0,30.01,East,79,0.0,0.0,76,0.00,,,0.00,weatherlink.com 1.10,2013-05-24 08:16:00,
2013-05-24 04:32:00,75.5,68.0,30.01,East,79,0.0,0.0,77,0.00,,,0.00,weatherlink.com 1.10,2013-05-24 08:32:00,
2013-05-24 04:46:00,75.0,68.0,30.00,East,79,0.0,0.0,78,0.00,,,0.00,weatherlink.com 1.10,2013-05-24 08:46:00,
2013-05-24 05:02:00,74.6,69.0,30.01,East,79,0.0,0.0,82,0.00,,,0.00,weatherlink.com 1.10,2013-05-24 09:02:00,
2013-05-24 05:16:00,74.4,69.0,30.01,East,79,0.0,0.0,82,0.00,,,0.00,weatherlink.com 1.10,2013-05-24 09:16:00,
2013-05-24 05:32:00,74.8,69.0,30.02,NNE,26,0.0,0.0,83,0.00,,,0.00,weatherlink.com 1.10,2013-05-24 09:32:00,
2013-05-24 05:46:00,74.7,69.0,30.02,WNW,301,0.0,0.0,83,0.00,,,0.00,weatherlink.com 1.10,2013-05-24 09:46:00,
2013-05-24 06:02:00,75.0,70.0,30.02,WNW,291,0.0,0.0,85,0.00,,,0.00,weatherlink.com 1.10,2013-05-24 10:02:00,
2013-05-24 06:17:00,75.0,70.0,30.03,WNW,287,0.0,0.0,83,0.00,,,0.00,weatherlink.com 1.10,2013-05-24 10:17:00,
2013-05-24 06:31:00,74.9,70.0,30.03,WNW,288,0.0,0.0,84,0.00,,,0.00,weatherlink.com 1.10,2013-05-24 10:31:00,
2013-05-24 06:47:00,75.5,73.0,30.04,WNW,293,2.0,5.0,91,0.00,,,0.00,weatherlink.com 1.10,2013-05-24 10:47:00,
2013-05-24 07:03:00,75.3,73.0,30.05,WNW,285,1.0,4.0,93,0.00,,,0.00,weatherlink.com 1.10,2013-05-24 11:03:00,
2013-05-24 07:17:00,75.8,73.0,30.06,WNW,283,2.0,4.0,92,0.00,,,0.00,weatherlink.com 1.10,2013-05-24 11:17:00,
2013-05-24 07:32:00,76.8,73.0,30.05,WNW,285,1.0,3.0,89,0.00,,,0.00,weatherlink.com 1.10,2013-05-24 11:32:00,
2013-05-24 07:48:00,78.0,74.0,30.05,WNW,293,5.0,6.0,86,0.00,,,0.00,weatherlink.com 1.10,2013-05-24 11:48:00,
2013-05-24 08:02:00,78.3,74.0,30.06,WNW,283,6.0,6.0,85,0.00,,,0.00,weatherlink.com 1.10,2013-05-24 12:02:00,
2013-05-24 08:18:00,79.3,74.0,30.06,North,356,1.0,4.0,84,0.00,,,0.00,weatherlink.com 1.10,2013-05-24 12:18:00,
2013-05-24 08:33:00,79.4,73.0,30.07,WNW,298,3.0,7.0,80,0.00,,,0.00,weatherlink.com 1.10,2013-05-24 12:33:00,
2013-05-24 08:47:00,79.7,73.0,30.07,NNW,338,2.0,8.0,81,0.00,,,0.00,weatherlink.com 1.10,2013-05-24 12:47:00,
2013-05-24 09:02:00,80.1,73.0,30.07,North,349,1.0,8.0,80,0.00,,,0.00,weatherlink.com 1.10,2013-05-24 13:02:00,
2013-05-24 09:17:00,81.0,74.0,30.08,West,281,4.0,7.0,79,0.00,,,0.00,weatherlink.com 1.10,2013-05-24 13:17:00,
2013-05-24 09:32:00,81.2,73.0,30.08,NW,311,3.0,8.0,76,0.00,,,0.00,weatherlink.com 1.10,2013-05-24 13:32:00,
2013-05-24 09:47:00,82.1,73.0,30.09,North,358,2.0,8.0,74,0.00,,,0.00,weatherlink.com 1.10,2013-05-24 13:47:00,
2013-05-24 10:02:00,82.9,73.0,30.09,WNW,295,2.0,5.0,72,0.00,,,0.00,weatherlink.com 1.10,2013-05-24 14:02:00,
2013-05-24 10:17:00,83.8,73.0,30.09,North,360,2.0,4.0,71,0.00,,,0.00,weatherlink.com 1.10,2013-05-24 14:17:00,
2013-05-24 10:33:00,84.9,74.0,30.09,NNE,20,1.0,3.0,69,0.00,,,0.00,weatherlink.com 1.10,2013-05-24 14:33:00,
2013-05-24 10:48:00,85.4,73.0,30.09,NW,309,2.0,4.0,67,0.00,,,0.00,weatherlink.com 1.10,2013-05-24 14:48:00,
2013-05-24 11:03:00,85.4,74.0,30.09,North,357,2.0,5.0,69,0.00,,,0.00,weatherlink.com 1.10,2013-05-24 15:03:00,
2013-05-24 11:18:00,84.2,74.0,30.09,NE,36,6.0,8.0,72,0.00,,,0.00,weatherlink.com 1.10,2013-05-24 15:18:00,
2013-05-24 11:33:00,83.2,75.0,30.09,NE,53,6.0,9.0,75,0.00,,,0.00,weatherlink.com 1.10,2013-05-24 15:33:00,
2013-05-24 11:48:00,83.9,75.0,30.10,NE,41,5.0,7.0,75,0.00,,,0.00,weatherlink.com 1.10,2013-05-24 15:48:00,
2013-05-24 12:18:00,83.5,73.0,30.09,NNE,27,5.0,8.0,70,0.00,,,0.00,weatherlink.com 1.10,2013-05-24 16:18:00,
2013-05-24 12:33:00,84.3,74.0,30.09,NE,39,2.0,7.0,71,0.00,,,0.00,weatherlink.com 1.10,2013-05-24 16:33:00,
2013-05-24 12:48:00,83.9,73.0,30.08,NE,46,7.0,9.0,69,0.00,,,0.00,weatherlink.com 1.10,2013-05-24 16:48:00,
2013-05-24 13:03:00,84.2,74.0,30.08,ENE,72,4.0,8.0,72,0.00,,,0.00,weatherlink.com 1.10,2013-05-24 17:03:00,
2013-05-24 13:18:00,84.1,73.0,30.08,ENE,65,4.0,8.0,70,0.00,,,0.00,weatherlink.com 1.10,2013-05-24 17:18:00,
2013-05-24 13:33:00,84.2,73.0,30.08,NE,46,4.0,11.0,70,0.00,,,0.00,weatherlink.com 1.10,2013-05-24 17:33:00,
2013-05-24 13:48:00,85.1,73.0,30.08,NE,43,4.0,8.0,68,0.00,,,0.00,weatherlink.com 1.10,2013-05-24 17:48:00,
2013-05-24 14:03:00,85.0,72.0,30.08,NE,43,7.0,9.0,65,0.00,,,0.00,weatherlink.com 1.10,2013-05-24 18:03:00,
2013-05-24 14:18:00,85.0,74.0,30.07,NNE,20,7.0,9.0,69,0.00,,,0.00,weatherlink.com 1.10,2013-05-24 18:18:00,
2013-05-24 14:33:00,85.7,73.0,30.07,NE,46,7.0,8.0,66,0.00,,,0.00,weatherlink.com 1.10,2013-05-24 18:33:00,
2013-05-24 14:48:00,86.2,72.0,30.07,NE,46,5.0,9.0,63,0.00,,,0.00,weatherlink.com 1.10,2013-05-24 18:48:00,
2013-05-24 15:03:00,85.9,73.0,30.07,NE,43,8.0,9.0,66,0.00,,,0.00,weatherlink.com 1.10,2013-05-24 19:03:00,
2013-05-24 15:18:00,85.2,72.0,30.07,NNE,25,4.0,11.0,64,0.00,,,0.00,weatherlink.com 1.10,2013-05-24 19:18:00,
2013-05-24 15:33:00,85.6,71.0,30.07,NE,34,7.0,8.0,62,0.00,,,0.00,weatherlink.com 1.10,2013-05-24 19:33:00,
2013-05-24 15:48:00,85.2,72.0,30.07,NNE,23,9.0,11.0,64,0.00,,,0.00,weatherlink.com 1.10,2013-05-24 19:48:00,
2013-05-24 16:03:00,85.6,69.0,30.07,NNE,23,7.0,10.0,58,0.00,,,0.00,weatherlink.com 1.10,2013-05-24 20:03:00,
2013-05-24 16:18:00,85.4,67.0,30.06,NE,44,6.0,11.0,54,0.00,,,0.00,weatherlink.com 1.10,2013-05-24 20:18:00,
2013-05-24 16:33:00,85.5,70.0,30.06,NE,49,5.0,9.0,60,0.00,,,0.00,weatherlink.com 1.10,2013-05-24 20:33:00,
2013-05-24 16:48:00,85.1,68.0,30.07,NE,53,7.0,10.0,57,0.00,,,0.00,weatherlink.com 1.10,2013-05-24 20:48:00,
2013-05-24 17:03:00,84.8,68.0,30.07,NE,37,8.0,10.0,57,0.00,,,0.00,weatherlink.com 1.10,2013-05-24 21:03:00,
2013-05-24 17:18:00,84.6,71.0,30.07,NE,44,7.0,9.0,64,0.00,,,0.00,weatherlink.com 1.10,2013-05-24 21:18:00,
2013-05-24 17:33:00,83.8,71.0,30.06,ENE,74,6.0,12.0,65,0.00,,,0.00,weatherlink.com 1.10,2013-05-24 21:33:00,
2013-05-24 17:48:00,83.6,70.0,30.06,NE,50,5.0,10.0,63,0.00,,,0.00,weatherlink.com 1.10,2013-05-24 21:48:00,
2013-05-24 18:03:00,83.7,73.0,30.06,NE,43,5.0,10.0,70,0.00,,,0.00,weatherlink.com 1.10,2013-05-24 22:03:00,
2013-05-24 18:18:00,83.7,71.0,30.06,NE,44,5.0,9.0,65,0.00,,,0.00,weatherlink.com 1.10,2013-05-24 22:18:00,
2013-05-24 18:33:00,83.5,72.0,30.06,NE,56,4.0,7.0,68,0.00,,,0.00,weatherlink.com 1.10,2013-05-24 22:33:00,
2013-05-24 18:48:00,82.7,73.0,30.05,ENE,67,4.0,9.0,72,0.00,,,0.00,weatherlink.com 1.10,2013-05-24 22:48:00,
2013-05-24 19:03:00,82.2,72.0,30.05,NE,43,9.0,9.0,72,0.00,,,0.00,weatherlink.com 1.10,2013-05-24 23:03:00,
2013-05-24 19:18:00,82.1,73.0,30.06,East,99,4.0,7.0,73,0.00,,,0.00,weatherlink.com 1.10,2013-05-24 23:18:00,
2013-05-24 19:33:00,81.8,72.0,30.06,ENE,65,6.0,7.0,73,0.00,,,0.00,weatherlink.com 1.10,2013-05-24 23:33:00,
2013-05-24 19:48:00,81.6,73.0,30.06,ENE,72,3.0,7.0,74,0.00,,,0.00,weatherlink.com 1.10,2013-05-24 23:48:00,
2013-05-24 20:03:00,81.4,72.0,30.07,East,96,3.0,6.0,74,0.00,,,0.00,weatherlink.com 1.10,2013-05-25 00:03:00,
2013-05-24 20:18:00,81.2,73.0,30.07,East,85,3.0,8.0,75,0.00,,,0.00,weatherlink.com 1.10,2013-05-25 00:18:00,
2013-05-24 20:33:00,81.0,72.0,30.07,ENE,71,3.0,8.0,75,0.00,,,0.00,weatherlink.com 1.10,2013-05-25 00:33:00,
2013-05-24 20:48:00,80.8,73.0,30.08,East,85,3.0,5.0,77,0.00,,,0.00,weatherlink.com 1.10,2013-05-25 00:48:00,
2013-05-24 21:03:00,80.6,73.0,30.08,ESE,113,5.0,5.0,78,0.00,,,0.00,weatherlink.com 1.10,2013-05-25 01:03:00,
2013-05-24 21:18:00,80.4,73.0,30.09,ESE,121,1.0,6.0,79,0.00,,,0.00,weatherlink.com 1.10,2013-05-25 01:18:00,
2013-05-24 21:33:00,80.1,73.0,30.09,East,90,3.0,5.0,80,0.00,,,0.00,weatherlink.com 1.10,2013-05-25 01:33:00,
2013-05-24 21:48:00,80.2,74.0,30.09,ESE,103,3.0,7.0,80,0.00,,,0.00,weatherlink.com 1.10,2013-05-25 01:48:00,
2013-05-24 22:03:00,80.0,74.0,30.10,ESE,110,6.0,6.0,81,0.00,,,0.00,weatherlink.com 1.10,2013-05-25 02:03:00,
2013-05-24 22:18:00,80.2,74.0,30.10,ESE,102,3.0,6.0,80,0.00,,,0.00,weatherlink.com 1.10,2013-05-25 02:18:00,
2013-05-24 22:33:00,80.2,74.0,30.10,East,89,2.0,6.0,80,0.00,,,0.00,weatherlink.com 1.10,2013-05-25 02:33:00,
2013-05-24 22:48:00,80.2,73.0,30.10,ESE,106,3.0,6.0,79,0.00,,,0.00,weatherlink.com 1.10,2013-05-25 02:48:00,
2013-05-24 23:03:00,80.3,73.0,30.11,East,91,3.0,6.0,78,0.00,,,0.00,weatherlink.com 1.10,2013-05-25 03:03:00,
2013-05-24 23:18:00,80.4,73.0,30.11,ESE,103,2.0,5.0,79,0.00,,,0.00,weatherlink.com 1.10,2013-05-25 03:18:00,
2013-05-24 23:33:00,80.3,74.0,30.11,East,85,4.0,5.0,80,0.00,,,0.00,weatherlink.com 1.10,2013-05-25 03:33:00,
2013-05-24 23:48:00,80.4,73.0,30.11,East,88,5.0,5.0,79,0.00,,,0.00,weatherlink.com 1.10,2013-05-25 03:48:00,